SV2RCS-13 Weather Reports


time (UTC)temp
C
wind
direction
speed
KPH
gust
KPH
rain 1hr
cm
rain 24hr
cm
rain mn
cm
humidity
%
barometer
mb
20260507181703 15 0.0 0.0 0.00 0.00 0.00 59 1017.0
20260507180703 15 0.0 0.0 0.00 0.00 0.00 59 1017.0
20260507175702 15 0.0 0.0 0.00 0.00 0.00 59 1016.9
20260507174702 16 0.0 0.0 0.00 0.00 0.00 59 1016.6
20260507173703 16 0.0 0.0 0.00 0.00 0.00 59 1016.6
20260507172703 16 0.0 0.0 0.00 0.00 0.00 60 1016.3
20260507171702 16 0.0 0.0 0.00 0.00 0.00 60 1016.3
20260507170703 16 0.0 0.0 0.00 0.00 0.00 60 1016.3
20260507165703 17 0.0 0.0 0.00 0.00 0.00 58 1016.2
20260507164702 17 0.0 0.0 0.00 0.00 0.00 55 1016.2
20260507163703 17 0.0 0.0 0.00 0.00 0.00 53 1016.0
20260507162703 17 0.0 0.0 0.00 0.00 0.00 53 1016.0
20260507161703 17 0.0 0.0 0.00 0.00 0.00 55 1016.0
20260507160703 17 0.0 0.0 0.00 0.00 0.00 56 1016.2
20260507155703 17 0.0 0.0 0.00 0.00 0.00 57 1016.1
20260507154703 17 0.0 0.0 0.00 0.00 0.00 57 1016.0
20260507153702 17 0.0 0.0 0.00 0.00 0.00 58 1016.2
20260507152702 17 0.0 0.0 0.00 0.00 0.00 55 1016.2
20260507151703 17 0.0 0.0 0.00 0.00 0.00 58 1016.2
20260507150702 17 0.0 0.0 0.00 0.00 0.00 55 1016.5
20260507145702 18 0.0 0.0 0.00 0.00 0.00 54 1016.5
20260507144703 17 0.0 0.0 0.00 0.00 0.00 54 1016.5
20260507143703 17 0.0 0.0 0.00 0.00 0.00 54 1016.3
20260507142705 18 0.0 0.0 0.00 0.00 0.00 52 1016.4
20260507141702 17 0.0 0.0 0.00 0.00 0.00 52 1016.4
20260507140702 18 0.0 0.0 0.00 0.00 0.00 53 1016.2
20260507135701 17 0.0 0.0 0.00 0.00 0.00 54 1016.2
20260507134703 17 0.0 0.0 0.00 0.00 0.00 52 1016.3
20260507133702 18 0.0 0.0 0.00 0.00 0.00 47 1016.1
20260507132702 18 0.0 0.0 0.00 0.00 0.00 47 1016.1
20260507131703 18 0.0 0.0 0.00 0.00 0.00 47 1016.1
20260507130703 18 0.0 0.0 0.00 0.00 0.00 45 1016.2
20260507125705 18 0.0 0.0 0.00 0.00 0.00 44 1016.3
20260507124702 18 0.0 0.0 0.00 0.00 0.00 43 1016.3
20260507123702 18 0.0 0.0 0.00 0.00 0.00 41 1016.3
20260507122702 18 0.0 0.0 0.00 0.00 0.00 40 1016.5
20260507121702 18 0.0 0.0 0.00 0.00 0.00 44 1016.8
20260507120702 18 0.0 0.0 0.00 0.00 0.00 46 1017.0
20260507115702 18 0.0 0.0 0.00 0.00 0.00 49 1017.0
20260507114703 18 0.0 0.0 0.00 0.00 0.00 51 1017.1
20260507113703 17 0.0 0.0 0.00 0.00 0.00 55 1017.1
20260507112702 17 0.0 0.0 0.00 0.00 0.00 55 1017.5
20260507111703 17 0.0 0.0 0.00 0.00 0.00 58 1017.5
20260507110702 17 0.0 0.0 0.00 0.00 0.00 61 1017.3
20260507105703 17 0.0 0.0 0.00 0.00 0.00 57 1017.9
20260507104702 17 0.0 0.0 0.00 0.00 0.00 53 1017.9
20260507103702 18 0.0 0.0 0.00 0.00 0.00 49 1017.7
20260507102702 18 0.0 0.0 0.00 0.00 0.00 48 1017.7
20260507101703 17 0.0 0.0 0.00 0.00 0.00 49 1017.8
20260507100702 17 0.0 0.0 0.00 0.00 0.00 50 1017.8
20260507095702 17 0.0 0.0 0.00 0.00 0.00 51 1017.8
20260507094703 17 0.0 0.0 0.00 0.00 0.00 54 1017.8
20260507093702 17 0.0 0.0 0.00 0.00 0.00 54 1017.6
20260507092701 17 0.0 0.0 0.00 0.00 0.00 53 1017.9
20260507091703 17 0.0 0.0 0.00 0.00 0.00 52 1017.8
20260507090702 17 0.0 0.0 0.00 0.00 0.00 51 1017.8
20260507085702 17 0.0 0.0 0.00 0.00 0.00 49 1017.7
20260507084703 17 0.0 0.0 0.00 0.00 0.00 46 1017.4
20260507083704 17 0.0 0.0 0.00 0.00 0.00 45 1017.1
20260507082702 18 0.0 0.0 0.00 0.00 0.00 44 1017.0
20260507081702 18 0.0 0.0 0.00 0.00 0.00 43 1016.9
20260507080702 18 0.0 0.0 0.00 0.00 0.00 40 1016.8
20260507075702 18 0.0 0.0 0.00 0.00 0.00 39 1016.5
20260507074702 18 0.0 0.0 0.00 0.00 0.00 39 1016.4
20260507073702 18 0.0 0.0 0.00 0.00 0.00 38 1016.2
20260507072702 18 0.0 0.0 0.00 0.00 0.00 38 1015.9
20260507071702 18 0.0 0.0 0.00 0.00 0.00 39 1015.9
20260507070702 17 0.0 0.0 0.00 0.00 0.00 39 1016.0
20260507065702 17 0.0 0.0 0.00 0.00 0.00 39 1016.2
20260507064702 17 0.0 0.0 0.00 0.00 0.00 40 1016.1
20260507063702 17 0.0 0.0 0.00 0.00 0.00 41 1016.1
20260507062707 17 0.0 0.0 0.00 0.00 0.00 40 1016.0
20260507061702 17 0.0 0.0 0.00 0.00 0.00 43 1016.0
20260507060702 17 0.0 0.0 0.00 0.00 0.00 44 1016.2
20260507055702 17 0.0 0.0 0.00 0.00 0.00 43 1015.9
20260507054702 17 0.0 0.0 0.00 0.00 0.00 44 1015.8
20260507053703 17 0.0 0.0 0.00 0.00 0.00 48 1015.7
20260507052702 16 0.0 0.0 0.00 0.00 0.00 47 1015.6
20260507051706 16 0.0 0.0 0.00 0.00 0.00 49 1015.6
20260507050702 16 0.0 0.0 0.00 0.00 0.00 49 1015.5
20260507045702 16 0.0 0.0 0.00 0.00 0.00 46 1015.3
20260507044702 16 0.0 0.0 0.00 0.00 0.00 47 1015.4
20260507043702 16 0.0 0.0 0.00 0.00 0.00 46 1015.1
20260507042702 16 0.0 0.0 0.00 0.00 0.00 45 1015.3
20260507041702 16 0.0 0.0 0.00 0.00 0.00 44 1015.4
20260507040657 15 0.0 0.0 0.00 0.00 0.00 47 1015.6
20260507035701 15 0.0 0.0 0.00 0.00 0.00 46 1015.5
20260507034702 15 0.0 0.0 0.00 0.00 0.00 46 1015.4
20260507033702 15 0.0 0.0 0.00 0.00 0.00 45 1015.5
20260507032702 14 0.0 0.0 0.00 0.00 0.00 45 1015.5
20260507031702 15 0.0 0.0 0.00 0.00 0.00 44 1015.3
20260507030703 15 0.0 0.0 0.00 0.00 0.00 43 1015.4
20260507025702 15 0.0 0.0 0.00 0.00 0.00 43 1015.4
20260507024705 15 0.0 0.0 0.00 0.00 0.00 42 1015.4
20260507023702 15 0.0 0.0 0.00 0.00 0.00 42 1015.3
20260507022702 15 0.0 0.0 0.00 0.00 0.00 41 1015.0
20260507021702 15 0.0 0.0 0.00 0.00 0.00 41 1015.0
20260507020703 15 0.0 0.0 0.00 0.00 0.00 42 1015.0
20260507015702 16 0.0 0.0 0.00 0.00 0.00 41 1014.9
20260507014702 16 0.0 0.0 0.00 0.00 0.00 40 1014.7
20260507013702 16 0.0 0.0 0.00 0.00 0.00 39 1014.6
20260507012702 16 0.0 0.0 0.00 0.00 0.00 39 1014.7
20260507011702 16 0.0 0.0 0.00 0.00 0.00 39 1014.6
20260507010702 15 0.0 0.0 0.00 0.00 0.00 39 1014.7
20260507005703 15 0.0 0.0 0.00 0.00 0.00 40 1014.8
20260507004702 15 0.0 0.0 0.00 0.00 0.00 40 1014.5
20260507003702 15 0.0 0.0 0.00 0.00 0.00 41 1014.7
20260507002702 15 0.0 0.0 0.00 0.00 0.00 40 1014.5
20260507001702 16 0.0 0.0 0.00 0.00 0.00 40 1014.3
20260507000702 16 0.0 0.0 0.00 0.00 0.00 40 1014.4
20260506235702 16 0.0 0.0 0.00 0.00 0.00 40 1014.5
20260506234702 16 0.0 0.0 0.00 0.00 0.00 40 1014.4
20260506233702 16 0.0 0.0 0.00 0.00 0.00 40 1014.3
20260506232701 16 0.0 0.0 0.00 0.00 0.00 40 1014.3
20260506231702 16 0.0 0.0 0.00 0.00 0.00 40 1014.2
20260506230702 16 0.0 0.0 0.00 0.00 0.00 40 1014.4
20260506225701 16 0.0 0.0 0.00 0.00 0.00 40 1014.4
20260506224702 16 0.0 0.0 0.00 0.00 0.00 39 1014.5
20260506223702 16 0.0 0.0 0.00 0.00 0.00 38 1014.6
20260506222702 16 0.0 0.0 0.00 0.00 0.00 37 1014.8
20260506221701 16 0.0 0.0 0.00 0.00 0.00 37 1014.8
20260506220702 16 0.0 0.0 0.00 0.00 0.00 38 1014.9
20260506215702 16 0.0 0.0 0.00 0.00 0.00 36 1014.9
20260506214701 16 0.0 0.0 0.00 0.00 0.00 35 1014.8
20260506213702 16 0.0 0.0 0.00 0.00 0.00 35 1014.8
20260506212701 16 0.0 0.0 0.00 0.00 0.00 35 1014.8
20260506211702 16 0.0 0.0 0.00 0.00 0.00 36 1014.8
20260506210706 16 0.0 0.0 0.00 0.00 0.00 37 1014.8
20260506205702 16 0.0 0.0 0.00 0.00 0.00 37 1014.9
20260506204702 16 0.0 0.0 0.00 0.00 0.00 36 1014.8
20260506203711 16 0.0 0.0 0.00 0.00 0.00 37 1014.8
20260506202702 16 0.0 0.0 0.00 0.00 0.00 35 1014.7
20260506201701 17 0.0 0.0 0.00 0.00 0.00 35 1014.5
20260506200702 17 0.0 0.0 0.00 0.00 0.00 34 1014.5
20260506195705 17 0.0 0.0 0.00 0.00 0.00 34 1014.6
20260506194704 17 0.0 0.0 0.00 0.00 0.00 34 1014.6
20260506193701 17 0.0 0.0 0.00 0.00 0.00 33 1014.1
20260506192702 17 0.0 0.0 0.00 0.00 0.00 33 1014.2
20260506191701 17 0.0 0.0 0.00 0.00 0.00 32 1013.9
20260506190702 17 0.0 0.0 0.00 0.00 0.00 33 1013.8
20260506185705 18 0.0 0.0 0.00 0.00 0.00 34 1013.8
20260506184701 18 0.0 0.0 0.00 0.00 0.00 33 1013.6
20260506183702 18 0.0 0.0 0.00 0.00 0.00 34 1013.2